User: anonymous   Login
Location: Unspecified
(0.0000°N, 0.0000°E)
Time: 01:04:23
(UTC+00:00)
Language:

STARLINK-35082 - Orbit

View from above orbital plane
View from above orbital plane
View from above satellite
View from above satellite

Ground track
Ground track

The orbit is defined by the following mean orbital elements,

1 65392U          26145.37706431 +.00000000 +00000-0 +25781-3 0 00003
2 65392  97.4507  16.8125 0002270  82.3810 277.7675 15.05658283    09
Epoch (UTC): 25 May 2026 09:02:58
Eccentricity: 0.0002270
inclination: 97.4507°
perigee height: 548 km
apogee height: 551 km
right ascension of ascending node: 16.8125°
argument of perigee: 82.3810°
revolutions per day: 15.05658283
mean anomaly at epoch: 277.7675°

The dashed part of the orbit path shows where the satellite is in the earth's shadow,  

DLR